Weather History for Ft Lauderdale, FL

Change the Weather History Date:

Wednesday, June 26, 2013

  Actual Average Record
Temperature  
Mean Temperature 83 °F 83 °F  
Max Temperature 88 °F 89 °F 96 °F (1952)
Min Temperature 78 °F 78 °F 66 °F (1937)
Degree Days  
Heating Degree Days 0 0  
Month to date heating degree days 0 0  
Since 1 June heating degree days 0 0  
Since 1 July heating degree days 85 112  
Cooling Degree Days 18 18  
Month to date cooling degree days 473 465  
Year to date cooling degree days 1869 1883  
Since 1 June cooling degree days 473 465  
Growing Degree Days 32 (Base 50)    
Moisture  
Dew Point 74 °F    
Average Humidity 72    
Maximum Humidity 85    
Minimum Humidity 59    
Precipitation  
Precipitation 0.19 in 0.35 in 3.09 in (1917)
Month to date precipitation 13.25 8.74  
Year to date precipitation 38.04 26.23  
Snow  
Snow 0.00 in - - ()
Month to date snowfall 0.0  
Since 1 June snowfall 0.0  
Since 1 July snowfall 0.0  
Snow Depth 0.00 in    
Sea Level Pressure  
Sea Level Pressure 30.04 in    
Wind  
Wind Speed 12 mph (SE)    
Max Wind Speed 18 mph    
Max Gust Speed 24 mph    
Visibility 9 miles    
Events Rain , Thunderstorm    
T = Trace of Precipitation, MM = Missing Value Source: NWS Daily Summary

Daily Weather History Graph

Daily Weather History Graph

Search for Another Location

Airport:

Trip Planner

Search our weather history database for the weather conditions in past years. The results will help you decide how hot, cold, wet, or windy it might be!

Date:

Astronomy

Jun. 26, 2013 Rise Set
Actual Time 6:30 AM EDT 8:16 PM EDT
Civil Twilight 6:04 AM EDT 8:42 PM EDT
Nautical Twilight 5:33 AM EDT 9:13 PM EDT
Astronomical Twilight 5:00 AM EDT 9:46 PM EDT
Moon 11:04 PM EDT (6/26) 9:58 AM EDT (6/26)
Length of Visible Light 14h 38m
Length of Day
13h 45m
Waning Gibbous, 85% of the Moon is Illuminated
Jun 26
Waning Gibbous
Jun 30
Last Quarter
Jul 8
New
Jul 15
First Quarter
Jul 22
Full

Hourly Weather History & Observations

Time (EDT) Temp. Heat Index Dew Point Humidity Pressure Visibility Wind Dir Wind Speed Gust Speed Precip Events Conditions
12:53 AM 82.9 °F 90.2 °F 75.0 °F 77% 30.07 in 10.0 mi SE 12.7 mph - N/A   Mostly Cloudy
1:06 AM 82.4 °F 89.5 °F 75.2 °F 79% 30.07 in 10.0 mi SE 10.4 mph - N/A   Mostly Cloudy
1:53 AM 82.9 °F 90.2 °F 75.0 °F 77% 30.05 in 10.0 mi ESE 12.7 mph - N/A   Scattered Clouds
2:29 AM 82.4 °F 88.2 °F 73.4 °F 74% 30.03 in 10.0 mi ESE 10.4 mph - N/A Thunderstorm Thunderstorm
2:53 AM 82.9 °F 89.4 °F 73.9 °F 74% 30.02 in 10.0 mi ESE 13.8 mph - N/A   Mostly Cloudy
3:53 AM 82.0 °F 87.9 °F 73.9 °F 76% 30.01 in 10.0 mi SE 11.5 mph - N/A   Scattered Clouds
4:41 AM 78.8 °F - 73.4 °F 83% 30.02 in 3.0 mi SE 20.7 mph 29.9 mph 0.05 in Rain Heavy Rain
4:49 AM 78.8 °F - 73.4 °F 83% 30.02 in 4.0 mi SE 16.1 mph 29.9 mph 0.11 in Rain Rain
4:53 AM 79.0 °F - 75.0 °F 88% 30.02 in 4.0 mi SE 6.9 mph - 0.11 in Rain Rain
5:06 AM 80.6 °F 86.2 °F 75.2 °F 84% 30.02 in 9.0 mi SSE 5.8 mph - 0.00 in   Mostly Cloudy
5:33 AM 80.6 °F 86.2 °F 75.2 °F 84% 30.04 in 1.8 mi ESE 15.0 mph - 0.03 in Rain Heavy Rain
5:40 AM 78.8 °F - 73.4 °F 83% 30.03 in 3.0 mi SE 8.1 mph - 0.07 in Rain Heavy Rain
5:53 AM 79.0 °F - 73.9 °F 84% 30.04 in 10.0 mi SSE 6.9 mph - 0.08 in Rain Light Rain
6:39 AM 80.6 °F 85.4 °F 73.4 °F 79% 30.05 in 10.0 mi SE 9.2 mph - N/A Thunderstorm Thunderstorm
6:53 AM 80.1 °F 84.2 °F 73.0 °F 79% 30.05 in 10.0 mi SE 10.4 mph - N/A Thunderstorm Thunderstorm
7:13 AM 80.6 °F 86.2 °F 75.2 °F 84% 30.04 in 10.0 mi SSE 6.9 mph - N/A Thunderstorm Thunderstorm
7:20 AM 80.6 °F 86.2 °F 75.2 °F 84% 30.04 in 10.0 mi SE 8.1 mph - N/A   Scattered Clouds
7:53 AM 82.0 °F 88.6 °F 75.0 °F 79% 30.04 in 10.0 mi SE 10.4 mph - N/A   Scattered Clouds
8:53 AM 84.0 °F 91.2 °F 73.9 °F 72% 30.06 in 10.0 mi ESE 11.5 mph - N/A   Mostly Cloudy
9:53 AM 84.0 °F 90.2 °F 73.0 °F 69% 30.06 in 10.0 mi SE 13.8 mph - N/A   Scattered Clouds
10:53 AM 86.0 °F 93.8 °F 73.9 °F 67% 30.06 in 10.0 mi SSE 11.5 mph - N/A   Scattered Clouds
11:53 AM 86.0 °F 93.0 °F 73.0 °F 65% 30.07 in 10.0 mi SE 15.0 mph 21.9 mph N/A   Scattered Clouds
12:53 PM 86.0 °F 92.2 °F 72.0 °F 63% 30.08 in 10.0 mi SE 12.7 mph 20.7 mph N/A   Partly Cloudy
1:53 PM 87.1 °F 93.6 °F 72.0 °F 61% 30.08 in 10.0 mi SE 13.8 mph 19.6 mph N/A   Partly Cloudy
2:53 PM 87.1 °F 92.8 °F 71.1 °F 59% 30.05 in 10.0 mi ESE 12.7 mph - N/A   Partly Cloudy
3:53 PM 87.1 °F 93.6 °F 72.0 °F 61% 30.05 in 10.0 mi ESE 16.1 mph 21.9 mph N/A   Partly Cloudy
4:53 PM 86.0 °F 93.0 °F 73.0 °F 65% 30.04 in 10.0 mi ESE 15.0 mph - N/A   Partly Cloudy
5:53 PM 84.0 °F 91.2 °F 73.9 °F 72% 30.04 in 10.0 mi ESE 12.7 mph - N/A   Scattered Clouds
6:53 PM 82.9 °F 88.8 °F 73.0 °F 72% 30.02 in 10.0 mi ESE 13.8 mph - N/A   Partly Cloudy
7:53 PM 82.9 °F 88.0 °F 72.0 °F 69% 30.03 in 10.0 mi ESE 12.7 mph - N/A   Partly Cloudy
8:53 PM 82.9 °F 88.8 °F 73.0 °F 72% 30.06 in 10.0 mi SE 6.9 mph - N/A   Partly Cloudy
9:53 PM 82.9 °F 89.4 °F 73.9 °F 74% 30.05 in 10.0 mi SE 8.1 mph - N/A   Partly Cloudy
10:53 PM 82.9 °F 89.4 °F 73.9 °F 74% 30.05 in 10.0 mi SE 9.2 mph - N/A   Partly Cloudy
11:53 PM 82.0 °F 87.9 °F 73.9 °F 76% 30.04 in 10.0 mi SE 9.2 mph - N/A   Partly Cloudy